Temperature
18 18 18 18 18 18 18 18 18 18 18 18 18 18 18 18 18 18 18 18 18 18 18 18 18 18 18 18 18 18 18 18 18 18 18 18 18 18 18 18 18 18 18
18 18 18 18 18 18 18 18 18 18 18 18 18 18 18 18 18 18 18 18 18 18 18 18 18 18 18 18 18 18 18 18 18 18 18 18 18 18 18 18 18 18 18
18 18 18 18 18 18 18 18 18 18 18 18 18 18 18 18 18 18 18 18 18 18 18 18 18 18 18 18 18 18 18 18 18 18 18 18 18 18 18 18 18 18 18
18 18 18 18 18 18 18 18 18 18 18 18 18 18 17 17 17 17 17 17 17 17 17 17 17 18 18 18 18 18 18 18 18 17 17 17 18 18 18 18 18 18 18
18 18 18 18 18 18 18 18 18 17 17 17 17 17 17 17 17 17 17 17 17 17 17 17 17 17 18 18 18 17 17 17 17 17 17 17 18 18 18 18 18 18 18
18 18 18 18 18 18 18 17 17 17 17 17 17 17 17 17 17 17 17 17 17 17 17 17 17 17 17 17 17 17 17 17 17 17 17 17 17 17 18 18 18 18 18
18 18 18 18 18 18 18 17 17 17 17 17 17 17 17 17 17 17 17 17 17 17 17 17 17 17 17 17 17 17 17 17 17 17 17 17 17 17 17 17 18 17 17
18 18 18 18 18 18 18 17 17 17 17 17 17 17 17 17 17 17 17 17 17 17 17 17 17 17 17 17 17 17 17 17 17 17 17 17 17 17 17 17 17 17 17
18 18 18 18 18 18 17 17 17 17 17 17 17 17 17 17 17 17 17 17 17 17 17 17 17 17 17 17 17 17 17 17 17 17 17 17 17 17 17 17 17 17 17
18 18 18 18 17 17 17 17 17 17 17 17 17 17 17 17 17 16 17 17 17 17 17 17 17 17 17 17 17 17 17 17 17 17 17 17 17 17 17 17 17 17 17
18 18 18 18 18 17 17 17 17 17 17 17 17 17 17 16 16 16 17 17 17 17 17 17 17 17 17 17 17 17 17 17 17 17 17 16 16 17 16 16 16 17 17
18 18 18 18 18 18 17 17 17 17 17 17 17 17 17 16 16 17 17 17 17 17 17 17 17 17 17 17 17 17 17 17 17 17 16 16 16 16 16 16 16 16 16
18 18 18 18 18 18 17 17 17 17 17 17 17 17 17 17 17 17 17 17 17 17 17 17 17 17 17 17 17 17 16 16 16 16 16 16 16 16 16 16 16 16 16
18 18 18 18 18 18 17 17 17 17 17 17 17 17 17 17 17 17 17 17 17 17 17 17 17 17 17 17 17 16 16 16 16 16 16 16 16 16 16 16 16 16 16
18 18 18 18 18 18 17 17 17 17 17 17 17 17 17 17 17 17 17 17 17 17 17 17 17 17 17 16 16 16 16 16 16 16 16 16 16 16 16 15 15 15 16
18 18 18 18 18 18 18 17 17 17 17 17 17 17 17 17 17 17 17 17 17 17 17 17 17 17 16 16 16 16 16 16 16 16 16 16 15 16 16 16 15 15 15
18 18 18 18 18 18 18 17 17 17 17 17 17 17 17 17 17 17 17 17 17 17 17 17 16 16 16 16 16 16 16 16 15 15 15 15 15 15 15 15 15 15 15
18 18 18 18 17 17 17 17 17 17 17 17 17 17 17 17 17 17 17 17 17 17 17 16 16 16 16 16 16 16 16 16 16 15 15 15 15 15 15 15 15 15 15
18 18 18 18 17 17 17 17 17 17 17 17 17 17 17 17 17 17 17 17 16 16 16 16 16 16 16 16 16 16 16 15 15 15 15 15 15 15 15 15 15 15 15
18 18 17 17 17 17 17 17 17 17 17 17 17 17 17 17 17 17 16 16 16 16 16 16 16 16 16 16 16 16 16 16 15 15 15 15 15 15 14 14 15 15 15
18 18 18 17 17 17 17 17 17 17 16 16 16 16 16 16 16 16 16 16 16 16 16 16 16 16 16 16 16 16 16 16 15 15 15 15 15 14 14 14 14 14 14
18 18 18 17 17 17 17 17 17 16 16 16 16 16 16 16 16 16 16 16 16 16 16 16 16 16 16 16 16 16 15 15 15 15 15 15 15 14 14 14 14 14 14
18 18 18 18 17 17 17 17 16 16 16 16 16 16 16 16 16 16 16 16 16 16 16 15 15 15 15 15 16 16 15 15 15 15 15 15 15 14 14 14 14 14 14
18 18 18 18 17 17 17 17 17 16 16 16 16 16 16 16 16 16 16 16 15 15 15 15 15 15 15 15 15 16 16 16 15 15 15 15 14 14 14 14 14 14 14
18 18 18 18 17 17 17 17 16 16 16 16 16 16 16 16 15 15 16 16 16 15 15 15 15 15 15 15 15 15 16 16 16 15 15 14 14 14 14 14 14 13 13
18 18 18 18 18 17 17 17 16 16 16 16 16 16 16 15 15 15 15 16 15 15 15 15 15 15 15 15 15 15 15 15 15 15 15 15 14 14 14 14 13 13 13
Wind_Speed
8 11 11 11 11 11 11 11 11 12 12 12 11 11 12 13 13 13 13 13 13 12 12 12 11 11 11 11 11 10 10 10 10 10 11 11 11 11 11 10 10 10 11
11 12 13 12 11 11 11 11 12 12 12 12 11 11 12 12 13 13 12 13 12 12 11 11 11 10 10 10 10 9 8 8 7 7 9 11 11 11 12 12 11 9 10
12 13 13 12 12 12 12 12 12 12 12 12 11 11 12 12 12 12 11 12 12 11 11 10 10 10 10 10 9 8 7 6 6 5 5 8 10 12 12 11 11 10 9
12 12 13 13 13 12 12 12 13 13 12 12 12 12 12 12 12 12 11 11 11 11 10 10 9 9 10 9 9 7 6 6 6 6 7 9 10 11 12 11 11 9 9
12 13 13 13 13 12 13 13 13 13 12 12 12 12 12 12 12 11 11 11 11 10 10 10 9 9 9 8 8 7 6 6 6 8 10 12 11 12 12 11 10 10 9
12 14 13 13 12 12 12 12 12 12 12 12 12 12 11 11 12 11 11 11 11 10 10 9 9 8 8 8 7 7 7 8 7 8 10 11 11 11 11 11 10 10 9
12 13 13 13 12 12 12 12 12 12 12 12 11 11 11 11 11 11 11 11 10 10 10 9 9 8 8 7 7 7 7 8 4 7 10 12 11 11 10 10 10 10 10
11 12 12 13 12 12 11 12 12 12 11 11 11 10 10 10 11 11 10 9 9 9 9 9 8 8 7 6 6 6 7 8 7 9 11 12 11 10 10 10 10 10 10
10 11 11 12 12 12 11 11 12 11 10 10 9 9 9 10 10 10 9 8 8 8 8 8 7 7 6 5 5 5 7 9 8 9 11 10 10 10 9 9 9 9 9
8 8 9 10 12 12 11 11 11 10 9 8 8 7 7 9 9 9 8 7 7 7 6 6 6 5 4 3 2 4 5 6 8 11 10 10 10 9 9 8 8 9 9
7 7 6 8 9 10 11 10 9 9 8 7 7 7 7 7 9 8 9 7 5 5 5 4 5 4 3 1 1 3 4 4 9 11 10 11 11 10 9 9 9 9 9
6 6 6 6 7 8 7 8 7 7 7 7 6 7 6 5 7 9 8 7 5 4 4 4 4 5 4 3 1 1 3 7 10 11 10 12 11 11 10 9 9 9 8
6 5 5 5 6 6 4 5 4 4 3 4 4 5 5 6 6 7 7 6 6 5 3 4 5 4 2 2 3 4 7 9 10 11 11 12 12 11 10 9 9 9 8
6 4 4 5 5 5 5 3 3 3 1 2 2 4 4 2 2 3 3 4 5 3 2 2 1 2 4 6 7 7 8 8 9 10 11 12 12 12 11 10 9 9 8
6 4 4 4 4 5 4 2 3 2 2 3 2 2 4 2 2 2 2 2 2 3 2 1 2 4 5 6 6 7 6 7 9 11 10 12 12 11 11 11 11 10 9
6 5 4 3 3 4 3 2 3 3 2 3 1 1 4 4 3 1 3 2 3 3 2 3 4 4 3 4 4 5 6 7 8 9 9 9 11 11 11 12 12 11 11
7 6 4 3 4 3 3 3 3 2 3 3 1 1 5 5 4 3 2 2 2 4 5 5 5 4 3 3 4 5 5 6 6 6 6 7 8 10 11 11 11 11 11
6 6 5 4 5 4 3 2 2 3 3 3 3 4 4 5 6 4 2 2 4 4 3 3 3 3 3 3 3 3 3 4 4 5 5 6 6 7 9 10 11 11 11
7 7 5 3 4 4 3 2 3 4 3 4 4 4 4 5 6 5 2 2 5 3 2 3 3 2 2 2 2 2 2 2 3 5 5 6 6 8 8 9 10 11 11
7 7 6 4 4 4 3 3 3 3 3 3 4 3 4 4 5 5 2 3 4 3 3 3 3 2 2 2 3 3 2 2 3 4 4 6 7 7 7 8 7 9 11
7 8 7 6 4 4 3 3 2 2 2 2 2 2 2 3 4 4 2 3 3 3 3 3 3 3 2 2 2 2 2 3 3 3 3 3 4 6 7 7 7 7 8
7 8 8 7 6 5 3 3 3 2 1 2 2 3 3 3 4 3 3 3 3 3 4 3 3 2 1 1 1 1 1 2 2 3 2 2 3 5 6 8 9 8 8
8 7 8 8 7 6 5 3 3 2 1 2 3 2 3 4 4 4 3 3 3 3 3 2 2 3 1 2 2 2 2 1 1 1 2 2 3 3 4 7 9 10 10
8 8 8 8 8 7 7 5 4 3 2 3 2 1 1 4 4 4 4 3 3 3 3 2 3 2 2 2 2 2 1 2 1 0 2 2 3 4 4 5 7 10 11
7 6 6 7 7 7 7 6 4 3 3 3 3 2 2 3 3 4 4 3 3 3 3 3 3 3 2 1 1 1 2 2 1 1 0 1 2 2 3 4 5 7 10
7 6 5 6 6 6 7 7 5 5 4 4 4 3 2 2 1 2 2 2 2 3 3 2 2 2 2 3 2 2 2 1 1 1 1 1 1 1 2 3 3 6 8
Wind_Direction
100 100 100 95 88 85 85 88 93 96 93 91 89 87 85 81 80 82 84 83 81 79 78 76 72 70 69 67 66 66 68 69 70 72 73 72 68 65 61 61 72 77 83
108 106 103 99 91 87 87 90 92 94 93 92 91 89 89 85 83 82 83 83 82 81 80 76 73 71 69 67 66 65 65 65 65 73 80 75 71 67 63 60 65 75 80
109 110 104 99 92 89 89 92 93 93 93 92 92 92 91 89 86 84 82 83 82 80 78 75 74 73 70 67 65 62 59 54 49 60 78 86 78 68 65 64 67 73 79
106 106 102 101 94 90 88 91 92 92 92 91 92 93 92 90 87 85 82 83 82 79 77 74 75 73 69 64 60 53 44 34 33 48 65 75 72 70 65 63 64 68 73
101 101 104 103 98 93 90 91 93 93 92 91 92 92 91 91 90 87 82 80 79 77 74 73 73 72 70 63 55 42 29 15 20 58 72 74 72 71 67 64 63 67 70
104 105 108 105 102 98 93 93 94 94 93 91 91 92 91 91 90 87 82 80 78 76 75 74 73 71 67 61 48 30 18 12 35 67 75 77 75 71 67 64 63 65 67
109 110 114 112 107 104 98 95 96 95 95 94 92 92 92 92 90 85 82 81 80 77 75 74 73 74 69 61 46 26 12 4 57 79 73 73 75 72 68 65 62 63 63
112 114 116 117 112 108 105 106 102 99 97 96 98 98 98 97 93 88 84 83 83 80 78 77 77 78 72 62 44 22 10 16 62 76 78 74 74 72 70 67 65 63 62
114 120 123 125 118 113 112 114 111 107 105 105 108 109 111 110 105 98 90 86 85 83 81 81 82 83 77 64 41 18 13 17 35 62 71 67 68 70 69 68 65 65 62
122 122 129 133 129 126 120 120 120 120 121 124 127 129 128 129 122 114 103 93 90 89 89 92 95 99 94 77 33 12 4 17 58 64 64 63 64 64 63 64 64 64 60
112 116 122 120 119 124 128 130 137 139 146 152 161 166 161 160 145 126 110 114 111 114 117 120 125 134 142 162 330 345 3 67 75 72 60 62 64 61 60 61 63 63 59
110 107 106 111 117 116 119 135 145 142 160 177 168 177 181 143 120 122 134 144 151 155 161 169 179 195 210 213 209 15 44 64 75 76 63 63 64 62 60 60 62 60 56
116 107 107 112 108 110 111 119 112 118 149 156 147 141 122 113 133 144 155 167 179 179 194 182 204 224 198 100 85 83 69 63 71 76 67 64 65 61 58 57 58 56 53
113 109 107 113 113 118 112 106 126 130 134 109 120 117 108 111 124 124 130 167 170 167 149 140 116 58 65 69 60 64 67 72 80 85 75 70 64 60 57 55 55 53 51
122 129 116 111 108 100 96 132 121 112 101 96 79 100 105 96 94 103 98 81 87 91 95 70 58 54 52 55 57 64 64 69 80 87 79 75 68 60 55 53 51 51 56
141 135 121 117 111 114 128 130 105 107 117 109 104 144 125 116 105 101 97 67 56 52 49 65 75 69 59 59 53 64 68 65 81 93 99 81 73 67 58 53 51 49 52
149 142 143 143 128 115 108 102 110 135 117 98 61 94 103 104 98 79 84 92 80 56 49 51 66 71 74 71 61 61 64 65 75 88 100 106 89 73 66 58 54 53 53
145 137 138 141 128 108 96 100 110 88 80 86 60 39 64 85 90 74 66 76 81 73 68 63 65 61 57 64 69 61 69 71 63 67 85 97 102 92 79 70 62 58 55
144 136 139 134 114 101 89 80 77 79 71 72 66 44 39 65 90 91 71 68 78 69 57 69 63 67 66 58 98 79 79 77 64 58 64 71 79 99 100 87 76 66 61
144 140 136 132 116 104 96 88 66 70 70 72 71 59 44 52 78 87 85 82 82 74 55 70 82 76 69 55 65 66 60 77 66 51 45 58 64 81 98 102 96 81 68
155 150 148 152 140 117 105 107 97 84 77 81 95 92 80 77 73 73 71 71 65 69 61 59 65 74 59 75 69 53 43 60 82 69 46 53 59 64 84 94 97 98 83
163 159 156 160 148 131 126 123 119 109 106 86 54 52 47 63 66 85 86 93 83 71 56 57 62 52 26 56 89 94 61 18 18 70 69 60 58 58 60 74 77 85 84
169 169 163 158 153 147 142 117 109 92 88 88 66 38 33 51 62 60 82 90 102 99 86 67 66 59 29 14 51 89 104 110 333 12 60 69 64 52 53 63 67 68 74
173 169 163 162 160 157 149 153 155 152 151 133 125 124 62 57 59 53 68 83 91 99 97 70 67 49 51 19 0 12 79 136 135 44 3 57 81 70 57 60 65 68 71
165 163 167 160 158 155 156 158 162 157 146 133 127 126 105 73 66 52 50 69 78 87 92 77 61 38 45 45 21 2 14 16 37 119 88 6 55 67 71 73 78 78 75
158 161 169 156 153 149 155 159 167 149 141 134 134 138 129 118 106 98 66 65 83 87 89 90 91 67 44 23 18 34 54 42 6 37 67 59 86 88 83 81 86 96 92
Height
1523 1524 1525 1525 1526 1527 1528 1528 1529 1530 1531 1532 1532 1533 1533 1534 1535 1535 1536 1536 1537 1538 1538 1538 1539 1539 1540 1540 1540 1541 1541 1541 1541 1541 1542 1542 1542 1542 1542 1542 1542 1542 1542
1524 1525 1525 1526 1527 1528 1529 1529 1530 1531 1532 1533 1534 1534 1535 1535 1536 1537 1537 1538 1539 1539 1540 1540 1540 1540 1541 1541 1541 1542 1542 1543 1543 1543 1543 1543 1543 1543 1543 1543 1543 1543 1544
1524 1525 1526 1527 1528 1529 1530 1531 1532 1533 1534 1534 1535 1535 1536 1537 1537 1538 1539 1540 1540 1540 1541 1541 1541 1542 1542 1542 1543 1543 1544 1544 1544 1544 1545 1545 1545 1545 1545 1545 1545 1545 1545
1526 1527 1527 1528 1529 1530 1531 1532 1533 1534 1535 1536 1536 1537 1537 1538 1539 1539 1540 1541 1541 1542 1542 1542 1543 1543 1543 1543 1544 1544 1545 1546 1546 1546 1546 1546 1546 1546 1546 1546 1546 1546 1546
1527 1528 1529 1530 1530 1531 1533 1533 1534 1535 1536 1537 1537 1538 1539 1539 1540 1541 1542 1542 1543 1543 1543 1544 1544 1544 1544 1545 1545 1546 1546 1547 1547 1547 1547 1547 1547 1547 1547 1547 1547 1547 1547
1528 1529 1530 1531 1532 1533 1534 1535 1536 1537 1538 1538 1539 1539 1540 1541 1542 1542 1543 1543 1544 1544 1544 1545 1545 1545 1545 1546 1546 1547 1547 1548 1548 1549 1549 1549 1548 1548 1548 1548 1548 1548 1548
1529 1530 1531 1532 1533 1534 1535 1536 1537 1538 1539 1539 1540 1541 1542 1542 1543 1544 1544 1545 1545 1545 1546 1546 1546 1546 1546 1547 1548 1548 1549 1549 1550 1550 1550 1550 1549 1549 1549 1549 1549 1549 1549
1530 1531 1532 1533 1534 1535 1536 1537 1538 1539 1540 1541 1542 1542 1543 1544 1545 1545 1546 1546 1546 1547 1547 1547 1547 1547 1548 1548 1549 1549 1550 1551 1551 1551 1551 1550 1550 1550 1550 1550 1549 1549 1549
1532 1532 1533 1534 1535 1537 1537 1538 1539 1540 1541 1542 1543 1544 1545 1546 1546 1547 1547 1548 1548 1548 1548 1549 1549 1549 1549 1550 1550 1551 1551 1552 1552 1552 1552 1551 1551 1551 1550 1550 1550 1550 1549
1533 1534 1535 1536 1537 1538 1539 1540 1540 1542 1543 1544 1545 1546 1546 1547 1548 1549 1549 1549 1550 1550 1550 1550 1550 1551 1551 1552 1552 1553 1553 1553 1553 1553 1552 1552 1552 1551 1551 1551 1550 1550 1550
1535 1536 1536 1538 1539 1540 1540 1541 1542 1543 1544 1545 1546 1547 1548 1549 1550 1551 1551 1551 1551 1552 1552 1552 1552 1553 1553 1554 1554 1554 1554 1554 1554 1553 1553 1553 1552 1552 1551 1551 1550 1550 1550
1535 1537 1538 1539 1540 1541 1542 1542 1543 1545 1546 1547 1548 1549 1550 1551 1552 1553 1553 1553 1553 1554 1554 1554 1554 1554 1555 1555 1556 1556 1556 1556 1555 1554 1554 1554 1553 1552 1552 1551 1551 1551 1550
1536 1537 1539 1540 1541 1542 1543 1544 1545 1546 1547 1548 1549 1551 1552 1553 1553 1554 1554 1554 1554 1555 1555 1556 1556 1556 1556 1557 1557 1557 1557 1557 1556 1555 1555 1555 1554 1553 1552 1552 1551 1551 1551
1536 1538 1539 1541 1542 1543 1544 1545 1546 1547 1548 1550 1551 1552 1553 1554 1554 1555 1555 1556 1556 1556 1557 1557 1557 1558 1558 1558 1558 1558 1558 1558 1557 1557 1556 1556 1555 1554 1553 1552 1552 1551 1551
1537 1539 1540 1541 1543 1544 1545 1546 1547 1549 1550 1550 1551 1552 1554 1554 1555 1556 1557 1557 1558 1558 1558 1558 1559 1559 1559 1559 1559 1559 1559 1559 1559 1558 1557 1557 1556 1555 1554 1553 1552 1551 1551
1538 1540 1541 1542 1544 1545 1545 1547 1548 1549 1550 1551 1552 1554 1555 1555 1556 1556 1557 1558 1558 1559 1559 1559 1559 1560 1560 1560 1560 1560 1560 1560 1559 1559 1558 1558 1557 1555 1554 1553 1552 1552 1552
1538 1540 1541 1543 1545 1546 1547 1548 1549 1550 1551 1552 1553 1555 1555 1556 1556 1557 1558 1559 1559 1559 1560 1560 1560 1560 1561 1561 1561 1561 1561 1561 1561 1560 1559 1558 1557 1556 1555 1554 1553 1553 1552
1538 1540 1542 1544 1545 1546 1548 1549 1550 1551 1552 1553 1554 1555 1556 1557 1557 1557 1558 1559 1560 1560 1560 1561 1561 1561 1562 1562 1562 1562 1562 1562 1561 1561 1560 1559 1558 1557 1556 1555 1554 1553 1553
1538 1540 1542 1544 1545 1547 1548 1549 1551 1551 1552 1553 1554 1555 1556 1557 1557 1558 1559 1560 1560 1560 1561 1561 1562 1562 1562 1563 1563 1563 1563 1563 1562 1562 1561 1560 1558 1557 1556 1556 1555 1554 1554
1537 1539 1541 1544 1545 1547 1548 1550 1551 1552 1553 1554 1555 1556 1556 1557 1558 1558 1559 1560 1560 1561 1561 1562 1562 1563 1563 1564 1564 1564 1564 1564 1563 1563 1562 1561 1560 1558 1557 1557 1556 1555 1555
1537 1539 1541 1543 1545 1546 1548 1549 1550 1552 1553 1554 1555 1556 1557 1558 1558 1559 1560 1560 1560 1561 1562 1562 1563 1563 1564 1564 1564 1564 1565 1565 1564 1564 1563 1562 1561 1560 1559 1558 1557 1557 1556
1536 1538 1540 1542 1544 1546 1547 1549 1550 1552 1553 1554 1555 1556 1557 1558 1558 1559 1560 1560 1561 1561 1562 1562 1563 1564 1564 1564 1565 1564 1565 1566 1565 1565 1564 1563 1562 1562 1561 1560 1559 1558 1557
1535 1537 1539 1541 1543 1545 1547 1549 1550 1551 1553 1554 1555 1556 1557 1558 1558 1559 1560 1560 1561 1562 1562 1563 1563 1564 1564 1565 1565 1565 1565 1565 1565 1566 1565 1564 1563 1562 1562 1561 1560 1559 1558
1533 1536 1538 1540 1542 1544 1546 1548 1549 1551 1552 1554 1555 1556 1557 1558 1558 1559 1560 1561 1561 1562 1562 1563 1563 1564 1564 1565 1565 1565 1566 1566 1566 1566 1566 1565 1564 1563 1562 1562 1561 1560 1559
1532 1535 1537 1539 1541 1543 1545 1547 1548 1550 1552 1553 1554 1555 1556 1557 1558 1559 1560 1561 1561 1562 1562 1563 1563 1564 1564 1565 1565 1566 1566 1566 1566 1566 1566 1566 1565 1564 1563 1562 1561 1560 1559
1530 1533 1536 1538 1540 1542 1544 1545 1547 1549 1551 1552 1554 1555 1556 1557 1558 1559 1560 1561 1562 1562 1563 1563 1564 1564 1564 1565 1566 1566 1566 1566 1566 1565 1565 1565 1565 1564 1563 1563 1562 1561 1560